TimeEDT,TemperatureF,Dew PointF,Humidity,Sea Level PressureIn,VisibilityMPH,Wind Direction,Wind SpeedMPH,Gust SpeedMPH,PrecipitationIn,Events,Conditions,WindDirDegrees,DateUTC
12:55 AM,37.9,27.0,65,30.27,10.0,North,8.1,-,N/A,,Clear,360,2012-10-29 04:55:00
1:55 AM,37.9,27.0,65,30.27,10.0,North,6.9,-,N/A,,Clear,360,2012-10-29 05:55:00
2:55 AM,37.0,27.0,67,30.27,10.0,North,9.2,-,N/A,,Clear,360,2012-10-29 06:55:00
3:55 AM,36.0,28.0,73,30.26,10.0,North,12.7,-,N/A,,Clear,360,2012-10-29 07:55:00
4:55 AM,37.0,28.9,73,30.25,10.0,North,10.4,-,N/A,,Clear,360,2012-10-29 08:55:00
5:55 AM,37.0,28.9,73,30.26,10.0,North,9.2,-,N/A,,Clear,360,2012-10-29 09:55:00
6:55 AM,37.0,28.9,73,30.26,10.0,North,9.2,-,N/A,,Clear,360,2012-10-29 10:55:00
7:55 AM,36.0,28.9,76,30.27,10.0,North,10.4,-,N/A,,Clear,360,2012-10-29 11:55:00
8:55 AM,37.0,28.0,70,30.27,10.0,North,10.4,-,N/A,,Clear,360,2012-10-29 12:55:00
9:55 AM,39.9,28.9,65,30.27,10.0,North,16.1,25.3,N/A,,Clear,350,2012-10-29 13:55:00
10:55 AM,43.0,27.0,53,30.26,10.0,North,18.4,26.5,N/A,,Clear,360,2012-10-29 14:55:00
11:55 AM,45.0,24.1,44,30.24,10.0,North,19.6,28.8,N/A,,Clear,350,2012-10-29 15:55:00
12:55 PM,46.9,24.1,41,30.22,10.0,North,18.4,24.2,N/A,,Clear,360,2012-10-29 16:55:00
1:55 PM,48.9,24.1,38,30.19,10.0,North,17.3,25.3,N/A,,Clear,10,2012-10-29 17:55:00
2:55 PM,50.0,25.0,38,30.17,10.0,North,16.1,23.0,N/A,,Clear,360,2012-10-29 18:55:00
3:55 PM,48.9,25.0,39,30.16,10.0,North,16.1,23.0,N/A,,Clear,350,2012-10-29 19:55:00
4:55 PM,48.0,21.0,34,30.16,10.0,North,21.9,27.6,N/A,,Clear,10,2012-10-29 20:55:00
5:55 PM,46.9,19.9,34,30.14,10.0,North,19.6,28.8,N/A,,Clear,350,2012-10-29 21:55:00
6:55 PM,45.0,24.1,44,30.13,10.0,North,18.4,28.8,N/A,,Clear,350,2012-10-29 22:55:00
7:55 PM,44.1,24.1,45,30.12,10.0,North,19.6,28.8,N/A,,Clear,350,2012-10-29 23:55:00
8:55 PM,44.1,24.1,45,30.09,10.0,North,19.6,27.6,N/A,,Clear,350,2012-10-30 00:55:00
9:55 PM,44.1,24.1,45,30.08,10.0,North,24.2,34.5,N/A,,Clear,10,2012-10-30 01:55:00
10:55 PM,43.0,24.1,47,30.05,10.0,North,18.4,38.0,N/A,,Clear,350,2012-10-30 02:55:00
11:55 PM,42.1,25.0,51,30.00,10.0,North,20.7,35.7,N/A,,Clear,350,2012-10-30 03:55:00